WETTERDATEN

GESTERN
Time Temp. Taup. r.Fe. Windrich Windstärke Windböe Druck 1h Prec. 24h Prec.
00:09 3.1 -2 68 270 0.3 1.1 1025.9 0.0000 0.0000
00:21 2.9 -2.1 68 270 0.3 1.1 1025.8 0.0000 0.0000
00:31 2.8 -2 69 270 0.3 1.4 1025.7 0.0000 0.0000
00:41 2.8 -2.2 68 270 0.3 1.1 1025.5 0.0000 0.0000
00:51 2.7 -2.1 69 270 0.3 1.4 1025.7 0.0000 0.0000
01:01 2.7 -2.1 69 270 0.3 1.1 1025.6 0.0000 0.0000
01:12 2.6 -2.4 68 270 0.3 1.4 1025.6 0.0000 0.0000
01:22 2.5 -2.3 69 296 0.8 1.4 1025.5 0.0000 0.0000
01:31 2.4 -2.4 69 270 0.3 1.1 1025.6 0.0000 0.0000
01:42 2.4 -2.4 69 270 0.3 1.1 1025.8 0.0000 0.0000
01:52 2.4 -2.4 69 270 0.3 1.1 1025.7 0.0000 0.0000
02:02 2.3 -2.5 69 302 0.3 1.1 1025.6 0.0000 0.0000
02:12 2.3 -2.5 69 305 0.3 1.1 1025.7 0.0000 0.0000
02:22 2.2 -2.6 69 301 0.8 1.4 1025.7 0.0000 0.0000
02:42 2.1 -2.5 70 270 0.3 1.1 1025.6 0.0000 0.0000
02:53 2 -2.6 70 270 0.3 0.8 1025.5 0.0000 0.0000
03:03 1.9 -2.6 70 292 0.8 1.1 1025.6 0.0000 0.0000
03:13 1.8 -2.7 70 270 0.3 1.4 1025.6 0.0000 0.0000
03:22 1.6 -2.9 70 289 0.8 1.9 1025.7 0.0000 0.0000
03:33 1.4 -2.9 71 286 0.8 1.9 1025.8 0.0000 0.0000
03:43 1.3 -3 71 288 0.8 1.4 1025.6 0.0000 0.0000
03:53 1.3 -2.8 72 270 0.3 1.4 1025.7 0.0000 0.0000
04:03 1.3 -2.8 72 285 0.8 1.4 1025.6 0.0000 0.0000
04:14 1.2 -2.9 72 292 0.8 1.9 1025.6 0.0000 0.0000
04:23 1.1 -3 72 294 0.8 2.2 1025.4 0.0000 0.0000
04:33 0.9 -3 73 289 0.8 1.9 1025.4 0.0000 0.0000
04:44 0.9 -3 73 289 0.8 1.4 1025.4 0.0000 0.0000
04:54 0.9 -3 73 287 0.8 1.4 1025.3 0.0000 0.0000
05:04 0.9 -3 73 270 0.3 1.1 1025.2 0.0000 0.0000
05:14 0.8 -3.1 73 270 0.3 1.1 1025.3 0.0000 0.0000
05:34 0.8 -2.9 74 270 0.3 1.1 1025.1 0.0000 0.0000
05:44 0.8 -2.9 74 270 0.3 1.1 1025.2 0.0000 0.0000
05:55 0.8 -2.9 74 270 0.3 1.1 1025 0.0000 0.0000
06:05 0.7 -3 74 270 0.3 1.1 1024.8 0.0000 0.0000
06:14 0.6 -2.9 75 295 0.8 1.4 1024.8 0.0000 0.0000
06:24 0.5 -3 75 294 0.8 1.4 1024.8 0.0000 0.0000
06:35 0.4 -3.1 75 288 0.8 2.2 1025 0.0000 0.0000
06:45 0.4 -2.9 76 296 0.8 1.4 1024.9 0.0000 0.0000
06:55 0.4 -2.9 76 270 0.3 1.1 1024.9 0.0000 0.0000
07:05 0.4 -2.9 76 270 0.3 1.4 1025 0.0000 0.0000
07:15 0.4 -2.9 76 270 0.3 1.1 1025.1 0.0000 0.0000
07:35 0.4 -2.9 76 293 0.8 1.9 1025.4 0.0000 0.0000
07:46 0.3 -3 76 294 0.8 1.9 1025.4 0.0000 0.0000
07:56 0.2 -3.1 76 288 0.8 1.9 1025.5 0.0000 0.0000
08:05 0.2 -3.1 76 298 0.8 1.4 1025.4 0.0000 0.0000
08:15 0.3 -3 76 291 0.8 1.4 1025.4 0.0000 0.0000
08:26 0.4 -2.9 76 270 0.3 1.9 1025.3 0.0000 0.0000
08:36 0.6 -2.9 75 270 0.3 1.1 1025.4 0.0000 0.0000
08:46 0.8 -2.8 75 302 0.3 1.4 1025.3 0.0000 0.0000
08:57 1 -2.7 74 270 0.3 1.4 1025.2 0.0000 0.0000
09:06 1.1 -2.8 73 297 0.8 1.4 1025 0.0000 0.0000
09:16 1.3 -2.7 73 270 0.3 1.1 1024.9 0.0000 0.0000
09:26 1.5 -2.5 73 288 0.8 1.9 1024.9 0.0000 0.0000
09:37 1.7 -2.5 72 270 0.3 1.9 1025.1 0.0000 0.0000
09:47 2 -2.6 70 296 0.8 1.4 1025.1 0.0000 0.0000
09:56 2.2 -2.4 70 300 0.8 1.9 1025.1 0.0000 0.0000
10:07 2.4 -2.4 69 310 0.3 1.4 1025.1 0.0000 0.0000
10:17 2.7 -2.3 68 270 0.3 1.9 1025.1 0.0000 0.0000
10:27 2.8 -2.4 67 270 0.3 1.4 1024.6 0.0000 0.0000
10:37 2.9 -2.3 67 270 0.3 1.1 1024.3 0.0000 0.0000
10:48 3.1 -2.1 67 270 0.3 0.8 1024 0.0000 0.0000
10:57 3.2 -2.4 65 296 0.8 2.2 1024.1 0.0000 0.0000
11:07 3.4 -2.4 64 293 0.8 1.4 1024.4 0.0000 0.0000
11:17 3.5 -2.5 63 302 0.8 1.9 1024.6 0.0000 0.0000
11:28 3.8 -2.3 63 306 0.8 1.4 1024.3 0.0000 0.0000
11:38 4 -2.5 61 297 0.8 1.4 1024.2 0.0000 0.0000
11:47 4.1 -2.6 60 300 0.8 3.1 1024.4 0.0000 0.0000
11:58 4.2 -2.7 59 300 0.8 1.9 1023.9 0.0000 0.0000
12:08 4.3 -2.5 60 310 0.3 1.9 1024.1 0.0000 0.0000
12:18 4.4 -2.6 59 298 0.8 2.2 1024.1 0.0000 0.0000
12:28 4.5 -2.7 58 300 0.8 1.9 1024 0.0000 0.0000
12:39 4.6 -2.4 59 298 0.8 2.2 1023.9 0.0000 0.0000
12:48 4.8 -2.9 56 303 0.8 1.9 1023.7 0.0000 0.0000
12:58 4.9 -2.8 56 301 0.8 2.5 1023.6 0.0000 0.0000
13:09 5.1 -2.6 56 304 0.8 1.9 1023.5 0.0000 0.0000
13:19 5.2 -2.5 56 307 0.8 1.4 1023.6 0.0000 0.0000
13:29 5.3 -3.1 53 299 0.8 1.9 1023.2 0.0000 0.0000
13:38 5.4 -3 53 307 0.8 2.2 1023 0.0000 0.0000
13:49 5.5 -2.9 53 304 0.3 1.9 1022.9 0.0000 0.0000
13:59 5.6 -3.3 51 308 0.8 2.5 1022.8 0.0000 0.0000
14:09 5.7 -3 52 310 0.3 1.4 1022.7 0.0000 0.0000
14:19 5.7 -3.2 51 315 0.3 1.4 1022.6 0.0000 0.0000
14:29 5.8 -2.9 52 270 0.3 1.1 1022.4 0.0000 0.0000
14:39 5.8 -3.1 51 307 0.3 1.4 1022.4 0.0000 0.0000
14:49 5.8 -3.1 51 306 0.3 1.9 1022.2 0.0000 0.0000
15:00 5.9 -3.1 51 304 0.8 1.4 1022.1 0.0000 0.0000
15:10 5.9 -3.3 50 305 0.3 1.4 1022.1 0.0000 0.0000
15:20 5.9 -3.8 48 307 0.8 1.9 1022.2 0.0000 0.0000
15:30 5.9 -3.5 49 306 0.3 1.4 1022 0.0000 0.0000
15:40 5.9 -3.5 49 306 0.3 1.1 1022 0.0000 0.0000
15:50 5.9 -3.8 48 315 0.3 1.9 1022.1 0.0000 0.0000
16:00 5.8 -3.9 48 308 0.3 1.4 1022.2 0.0000 0.0000
16:11 5.8 -3.9 48 270 0.3 1.4 1022.1 0.0000 0.0000
16:20 5.7 -3.7 49 294 0.8 1.4 1022.2 0.0000 0.0000
16:30 5.5 -3.9 49 300 0.8 1.9 1022.2 0.0000 0.0000
16:40 5.4 -3.7 50 270 0.3 1.1 1022 0.0000 0.0000
16:51 5.3 -3.8 50 303 0.3 1.9 1021.8 0.0000 0.0000
17:01 5.1 -3.9 50 295 0.8 1.9 1021.8 0.0000 0.0000
17:10 5 -3.8 51 270 0.3 1.1 1021.8 0.0000 0.0000
17:21 4.8 -4 51 285 0.8 1.9 1021.6 0.0000 0.0000
17:31 4.7 -3.8 52 270 0.3 1.1 1021.6 0.0000 0.0000
17:41 4.6 -3.9 52 270 0.3 1.1 1021.4 0.0000 0.0000
17:51 4.5 -3.8 53 270 0.3 1.1 1021.6 0.0000 0.0000
18:00 4.4 -3.8 53 305 0.3 1.9 1021.5 0.0000 0.0000
18:11 4.3 -3.7 54 270 0.3 1.1 1021.4 0.0000 0.0000
18:21 4.2 -3.8 54 303 0.3 1.9 1021.4 0.0000 0.0000
18:31 4.1 -4.1 53 300 0.8 1.9 1021.4 0.0000 0.0000
18:42 3.9 -4 54 270 0.3 1.1 1021.5 0.0000 0.0000
18:51 3.8 -4.1 54 270 0.3 1.4 1021.5 0.0000 0.0000
19:01 3.6 -4.3 54 310 0.3 1.9 1021.6 0.0000 0.0000
19:12 3.4 -4.7 53 270 0.3 1.4 1021.6 0.0000 0.0000
19:22 3.3 -4.5 54 270 0.3 1.1 1021.5 0.0000 0.0000
19:32 3.3 -4.5 54 270 0.3 1.1 1021.5 0.0000 0.0000
19:52 3 -5 53 270 0.3 1.4 1021.3 0.0000 0.0000
20:01 2.9 -4.9 54 270 0.3 1.4 1021.1 0.0000 0.0000
20:11 2.9 -4.9 54 270 0.3 1.1 1021.1 0.0000 0.0000
20:21 2.8 -4.9 54 270 0.3 1.4 1021.1 0.0000 0.0000
20:31 2.6 -5.1 54 270 0.3 1.1 1021.2 0.0000 0.0000
20:41 2.5 -5 55 270 0.3 1.1 1021.1 0.0000 0.0000
20:52 2.5 -5 55 270 0.3 1.1 1021 0.0000 0.0000
21:01 2.4 -5.1 55 270 0.3 1.1 1021 0.0000 0.0000
21:11 2.3 -4.9 56 270 0.3 0.8 1021 0.0000 0.0000
21:21 2.3 -4.5 58 270 0.3 0.8 1021 0.0000 0.0000
21:32 2.3 -4.5 58 270 0.3 1.1 1020.9 0.0000 0.0000
21:51 2.2 -4 61 270 0.3 1.1 1020.9 0.0000 0.0000
22:02 2.2 -3.8 62 270 0.3 1.1 1020.8 0.0000 0.0000
22:12 2.2 -3.6 63 270 0.3 1.4 1021 0.0000 0.0000
22:22 2.2 -3.4 64 270 0.3 1.1 1020.9 0.0000 0.0000
22:32 2.2 -3.3 65 270 0.3 1.1 1020.9 0.0000 0.0000
22:43 2.2 -3.3 65 270 0.3 0.8 1020.9 0.0000 0.0000
22:52 2.2 -3.1 66 304 0.3 1.1 1021 0.0000 0.0000
23:02 2.2 -2.9 67 270 0.3 1.1 1021.1 0.0000 0.0000
23:13 2.1 -3 67 270 0.3 1.1 1021 0.0000 0.0000
23:23 2.1 -3 67 270 0.3 1.9 1021.1 0.0000 0.0000
23:33 2.1 -3 67 270 0.3 1.4 1020.8 0.0000 0.0000
23:42 2 -3.1 67 280 0.8 1.4 1020.8 0.0000 0.0000
23:53 2 -2.9 68 287 0.8 2.2 1020.8 0.0000 0.0000

TAGESSTATISTIK

2018-11-18
TEMPERATUR
MITTEL
2.9
MAXIMUM
5.9
15:00
MINIMUM
0.2
07:56
LUFTDRUCK
MITTEL
1023.5
MAXIMUM
1025.9
00:09
MINIMUM
1020.8
22:02
TAUPUNKT
MITTEL
-3.2
MAXIMUM
-2.0
00:09
MINIMUM
-5.1
20:31
FEUCHTIGKEIT
MITTEL
63
MAXIMUM
76
06:45
MINIMUM
48
15:20
WINDSTÄRKE
MITTEL
0.5
MAXIMUM
0.8
01:22
WINDBÖE
MITTEL
1.5
MAXIMUM
3.1
11:47
WINDRICHTUNG
VORHERRSCHENDE
W
59.9%
N
0.0
NO
0.0
O
0.0
SO
0.0
S
0.0
SW
0.0
W
59.9
NW
40.1
NIEDERSCHLAG
REGEN STUNDE
0.0
REGEN TAG
0.0
TEMPERATUR (°C)
MINIMUM
0.2
MAXIMUM
5.9
MITTEL
2.9
LUFTDRUCK (hpa)
MINIMUM
1020.8
MAXIMUM
1025.9
MITTEL
1023.5
MESSGERÄT